Regional Weather Roundup
Issued by NWS

Home | Current Version | Previous Version | Text Only | Print | Product List | Glossary Off
Versions: 1 2 3 4 5 6 7 8 9 10 11 12 13 14 15 16 17 18 19 20 21 22 23 24 25 26 27 28 29 30 31 32 33 34 35 36 37 38 39 40 41 42 43 44 45 46 47 48 49 50

000
ASUS43 KLOT 222100
RWRIL

ILLINOIS REGIONAL WEATHER ROUNDUP
NATIONAL WEATHER SERVICE CHICAGO/ROMEOVILLE IL
400 PM CDT MON SEP 22 2014

NOTE: "FAIR" INDICATES FEW OR NO CLOUDS BELOW 12,000 FEET WITH NO
SIGNIFICANT WEATHER AND/OR OBSTRUCTIONS TO VISIBILITY.

* THESE STATIONS ARE NOT UNDER NWS QUALITY CONTROL. THEY ALSO MAY NOT
  REPORT WEATHER SUCH AS PRECIPITATION OR FOG.

ILZ001-002-007-009-015-016-024-222200-
NORTHWEST ILLINOIS

CITY           SKY/WX    TMP DP  RH WIND       PRES   REMARKS
MOLINE         SUNNY     70  44  39 CALM      30.25F
STERLING*      SUNNY     72  46  40 N7        30.24F
$$

ILZ003-004-008-010-011-017-018-222200-
NORTH CENTRAL ILLINOIS

CITY           SKY/WX    TMP DP  RH WIND       PRES   REMARKS
ROCKFORD       SUNNY     69  44  40 W9        30.25F
ROCHELLE*      SUNNY     68  42  38 NW7       30.25F
$$

ILZ005-006-012>014-019>023-222200-
NORTHEAST ILLINOIS

CITY           SKY/WX    TMP DP  RH WIND       PRES   REMARKS
CHICAGO-OHARE  SUNNY     66  39  37 VRB3      30.23F
CHICAGO-MIDWAY SUNNY     66  46  48 E9        30.24F
AURORA         SUNNY     68  43  40 N8        30.24F
LANSING*       SUNNY     64  46  50 E6        30.25S
WAUKEGAN       SUNNY     65  43  44 W5        30.23F
DUPAGE AIRPORT SUNNY     68  43  40 VRB5      30.24F
WHEELING       SUNNY     67  43  41 VRB6      30.25F
NORTHERLY ISL    N/A     60  44  55 SE8         N/A
$$

LMZ740>746-222200-
SOUTHERN LAKE MICHIGAN

STATION/POSITION SKY/WX   TEMP    WIND        PRES    VSBY  WAVE
                          AIR SEA DIR/SP/G                  HT/PER
                          (F)     (DEG/KT/KT) (MB)    (MI)  (FT/S)
SOUTHERN BUOY              57 62  230/  8/  8 1024.7F         3/ 7
WAUKEGAN HARBOR            63     150/  9/ 11   N/A
HARRISON CRIB              57     100/  8/  9   N/A
BURNHAM HARBOR             60     100/  5/  6   N/A
CALUMET HARBOR             58      60/  6/  8 1023.3F
MICHIGAN CITY              59     320/  6/  9   N/A
MICHIGAN CITY 6N           57 64  310/  2/  4   N/A           3/ 6
ST. JOSEPH                 57 65  320/  6/ 10   N/A           2/ 4
$$

ILZ025>027-034>036-040-047-049-050-058-095>099-222200-
WEST-CENTRAL ILLINOIS

CITY           SKY/WX    TMP DP  RH WIND       PRES   REMARKS
QUINCY         SUNNY     71  43  36 CALM      30.25F
GALESBURG*     SUNNY     73  46  39 E3        30.25F
MACOMB*        SUNNY     70  40  34 CALM      30.27F
$$

ILZ028>032-037-038-041>044-048-051>054-059>061-222200-
CENTRAL ILLINOIS

CITY           SKY/WX    TMP DP  RH WIND       PRES   REMARKS
DECATUR        SUNNY     70  44  39 NW3       30.25F
PEORIA         SUNNY     71  44  37 N3        30.25F
SPRINGFIELD    SUNNY     72  45  37 CALM      30.25F
TAYLORVILLE    NOT AVBL
$$

ILZ033-039-045-046-055>057-062-063-222200-
EAST-CENTRAL ILLINOIS

CITY           SKY/WX    TMP DP  RH WIND       PRES   REMARKS
CHAMPAIGN      SUNNY     69  44  40 N7        30.25F
MATTOON        SUNNY     70  41  34 N7        30.23F
$$

ILZ079-100>102-222200-
SOUTHWEST ILLINOIS

CITY           SKY/WX    TMP DP  RH WIND       PRES   REMARKS
BELLEVILLE     SUNNY     73  47  39 N7        30.23F
CAHOKIA*       SUNNY     74  47  38 NW6       30.24F
SPARTA*        SUNNY     72  47  41 CALM      30.24F
$$

ILZ064>066-069>071-074>076-080>082-084>086-088>090-092>094-222200-
SOUTH-CENTRAL ILLINOIS

CITY           SKY/WX    TMP DP  RH WIND       PRES   REMARKS
CARBONDALE     SUNNY     73  47  39 N5        30.23F
MARION         SUNNY     72  45  37 N6        30.23F
MT. VERNON     SUNNY     70  46  43 N6        30.25S
$$

ILZ067-068-072-073-078-083-087-091-222200-
SOUTHEAST ILLINOIS

CITY           SKY/WX    TMP DP  RH WIND       PRES   REMARKS
LAWRENCEVILLE  SUNNY     71  45  39 N8        30.24S
ROBINSON*      SUNNY     70  48  45 N10       30.24F
$$

ABBREVIATIONS USED IN REMARKS
   TC - TEMPERATURE IN CELSIUS
  WCI - WIND CHILL INDEX
   HX - HEAT INDEX
  VSB - VISIBILITY
$$




USA.gov is the U.S. government's official web portal to all federal, state and local government web resources and services.